Weather History for Boone, IA

Change the Weather History Date:

Wednesday, October 3, 2012

  Actual Average Record
Temperature  
Mean Temperature 64 °F -  
Max Temperature 82 °F 70 °F 95 °F (1997)
Min Temperature 47 °F 41 °F 20 °F (1964)
Degree Days  
Heating Degree Days 1    
Growing Degree Days 14 (Base 50)    
Moisture  
Dew Point 36 °F    
Average Humidity 40    
Maximum Humidity 74    
Minimum Humidity 11    
Precipitation  
Precipitation 0.00 in - - ()
Sea Level Pressure  
Sea Level Pressure 29.91 in    
Wind  
Wind Speed 5 mph (South)    
Max Wind Speed 17 mph    
Max Gust Speed 24 mph    
Visibility 10 miles    
Events      
Averages and records for this station are not official NWS values.
T = Trace of Precipitation, MM = Missing Value Source: NWS Daily Summary

Daily Weather History Graph

Daily Weather History Graph

Search for Another Location

Airport:

Trip Planner

Search our weather history database for the weather conditions in past years. The results will help you decide how hot, cold, wet, or windy it might be!

Date:

Astronomy

Oct. 03, 2012 Rise Set
Actual Time 7:15 AM CDT 6:52 PM CDT
Civil Twilight 6:47 AM CDT 7:20 PM CDT
Nautical Twilight 6:14 AM CDT 7:52 PM CDT
Astronomical Twilight 5:42 AM CDT 8:25 PM CDT
Moon 8:41 PM CDT (10/3) 10:43 AM CDT (10/3)
Length of Visible Light 12h 33m
Length of Day
11h 37m
Waning Gibbous, 88% of the Moon is Illuminated
Oct 3
Waning Gibbous
Oct 8
Last Quarter
Oct 15
New
Oct 21
First Quarter
Oct 29
Full

Hourly Weather History & Observations

Time (CDT) Temp. Dew Point Humidity Pressure Visibility Wind Dir Wind Speed Gust Speed Precip Events Conditions
12:15 AM 57.0 °F 40.3 °F 54% 29.91 in 10.0 mi ESE 4.6 mph - N/A   Clear
12:35 AM 55.0 °F 40.3 °F 58% 29.91 in 10.0 mi Calm Calm - N/A   Clear
12:55 AM 57.2 °F 40.1 °F 53% 29.91 in 10.0 mi SE 3.5 mph - N/A   Clear
1:15 AM 54.1 °F 40.1 °F 59% 29.91 in 10.0 mi Calm Calm - N/A   Clear
1:35 AM 54.5 °F 40.3 °F 59% 29.91 in 10.0 mi Calm Calm - N/A   Clear
1:55 AM 56.3 °F 40.1 °F 55% 29.92 in 10.0 mi Calm Calm - N/A   Clear
2:15 AM 55.6 °F 40.3 °F 56% 29.92 in 10.0 mi Calm Calm - N/A   Clear
2:35 AM 59.2 °F 39.7 °F 49% 29.92 in 10.0 mi WSW 4.6 mph - N/A   Clear
2:55 AM 52.7 °F 41.5 °F 66% 29.92 in 10.0 mi WSW 4.6 mph - N/A   Clear
3:15 AM 53.2 °F 41.9 °F 65% 29.92 in 10.0 mi West 3.5 mph - N/A   Clear
3:35 AM 52.3 °F 40.8 °F 65% 29.92 in 10.0 mi Calm Calm - N/A   Clear
3:55 AM 55.2 °F 41.2 °F 59% 29.92 in 10.0 mi WSW 3.5 mph - N/A   Clear
4:15 AM 52.5 °F 41.0 °F 65% 29.92 in 10.0 mi WSW 3.5 mph - N/A   Clear
4:35 AM 51.8 °F 40.8 °F 66% 29.92 in 10.0 mi Calm Calm - N/A   Clear
4:55 AM 50.9 °F 40.3 °F 67% 29.92 in 10.0 mi Calm Calm - N/A   Clear
5:15 AM 50.4 °F 40.1 °F 68% 29.93 in 10.0 mi Calm Calm - N/A   Clear
5:35 AM 49.1 °F 39.7 °F 70% 29.93 in 10.0 mi Calm Calm - N/A   Clear
5:55 AM 50.0 °F 40.8 °F 71% 29.93 in 10.0 mi Calm Calm - N/A   Clear
6:15 AM 50.9 °F 40.8 °F 68% 29.93 in 10.0 mi Calm Calm - N/A   Clear
6:35 AM 47.3 °F 39.4 °F 74% 29.93 in 10.0 mi SSE 3.5 mph - N/A   Clear
6:55 AM 51.4 °F 40.6 °F 67% 29.94 in 10.0 mi South 3.5 mph - N/A   Clear
7:15 AM 52.7 °F 40.3 °F 63% 29.94 in 10.0 mi SSE 4.6 mph - N/A   Clear
7:35 AM 50.7 °F 40.1 °F 67% 29.94 in 10.0 mi SSE 3.5 mph - N/A   Clear
7:55 AM 50.9 °F 41.0 °F 69% 29.95 in 10.0 mi SE 3.5 mph - N/A   Clear
8:15 AM 52.9 °F 42.8 °F 69% 29.95 in 7.0 mi Calm Calm - N/A   Clear
8:35 AM 56.3 °F 45.0 °F 66% 29.95 in 10.0 mi Calm Calm - N/A   Clear
8:55 AM 59.7 °F 44.1 °F 56% 29.95 in 10.0 mi Calm Calm - N/A   Clear
9:15 AM 63.5 °F 44.1 °F 49% 29.95 in 10.0 mi South 3.5 mph - N/A   Clear
9:35 AM 66.7 °F 42.4 °F 41% 29.96 in 10.0 mi SSW 4.6 mph - N/A   Clear
10:15 AM 70.7 °F 41.4 °F 35% 29.95 in 10.0 mi South 5.8 mph - N/A   Clear
10:35 AM 72.5 °F 39.7 °F 31% 29.95 in 10.0 mi South 5.8 mph - N/A   Clear
10:55 AM 73.4 °F 38.7 °F 28% 29.95 in 10.0 mi SSW 5.8 mph - N/A   Clear
11:15 AM 74.8 °F 39.2 °F 28% 29.94 in 10.0 mi SSW 6.9 mph - N/A   Clear
11:35 AM 75.2 °F 38.1 °F 26% 29.94 in 10.0 mi South 8.1 mph - N/A   Clear
11:55 AM 76.5 °F 37.4 °F 24% 29.94 in 10.0 mi South 9.2 mph - N/A   Clear
12:15 PM 77.0 °F 36.7 °F 23% 29.93 in 10.0 mi South 11.5 mph 17.3 mph N/A   Clear
12:35 PM 77.9 °F 35.8 °F 22% 29.92 in 10.0 mi South 12.7 mph - N/A   Clear
12:55 PM 79.0 °F 33.6 °F 19% 29.91 in 10.0 mi SSE 11.5 mph 17.3 mph N/A   Clear
1:15 PM 79.3 °F 32.2 °F 18% 29.91 in 10.0 mi South 9.2 mph 17.3 mph N/A   Clear
1:35 PM 79.9 °F 32.0 °F 18% 29.90 in 10.0 mi South 10.4 mph 18.4 mph N/A   Clear
1:55 PM 80.8 °F 30.6 °F 16% 29.89 in 10.0 mi South 13.8 mph 18.4 mph N/A   Clear
2:15 PM 81.1 °F 28.8 °F 15% 29.88 in 10.0 mi SSE 12.7 mph 18.4 mph N/A   Clear
2:35 PM 81.0 °F 28.4 °F 15% 29.88 in 10.0 mi SSW 12.7 mph 19.6 mph N/A   Clear
2:55 PM 81.7 °F 27.1 °F 14% 29.88 in 10.0 mi South 15.0 mph 19.6 mph N/A   Clear
3:15 PM 81.7 °F 26.6 °F 13% 29.87 in 10.0 mi South 9.2 mph - N/A   Clear
3:35 PM 81.7 °F 25.0 °F 12% 29.87 in 10.0 mi South 9.2 mph - N/A   Clear
3:55 PM 81.5 °F 26.2 °F 13% 29.86 in 10.0 mi SSE 11.5 mph 24.2 mph N/A   Clear
4:15 PM 81.3 °F 24.1 °F 12% 29.86 in 10.0 mi South 11.5 mph 17.3 mph N/A   Clear
4:35 PM 81.1 °F 24.6 °F 13% 29.86 in 10.0 mi South 17.3 mph - N/A   Clear
4:55 PM 80.8 °F 22.1 °F 11% 29.86 in 10.0 mi SSE 15.0 mph 20.7 mph N/A   Clear
5:15 PM 80.2 °F 22.3 °F 12% 29.87 in 10.0 mi South 13.8 mph 19.6 mph N/A   Clear
5:35 PM 79.7 °F 22.6 °F 12% 29.87 in 10.0 mi South 10.4 mph 18.4 mph N/A   Clear
5:55 PM 78.6 °F 23.9 °F 13% 29.87 in 10.0 mi South 11.5 mph - N/A   Clear
6:15 PM 77.2 °F 25.2 °F 15% 29.87 in 10.0 mi South 8.1 mph - N/A   Clear
6:35 PM 74.7 °F 27.0 °F 17% 29.87 in 10.0 mi South 6.9 mph - N/A   Clear
6:55 PM 68.7 °F 28.8 °F 23% 29.87 in 10.0 mi SSE 5.8 mph - N/A   Clear
7:15 PM 65.3 °F 29.8 °F 26% 29.88 in 10.0 mi SSE 6.9 mph - N/A   Clear
7:35 PM 64.0 °F 30.0 °F 28% 29.88 in 10.0 mi SSE 5.8 mph - N/A   Clear
7:55 PM 64.4 °F 30.2 °F 28% 29.88 in 10.0 mi South 6.9 mph - N/A   Clear
8:15 PM 63.7 °F 31.6 °F 30% 29.90 in 10.0 mi South 5.8 mph - N/A   Clear
8:35 PM 62.6 °F 32.4 °F 32% 29.90 in 10.0 mi SSE 5.8 mph - N/A   Clear
8:55 PM 58.6 °F 33.1 °F 38% 29.91 in 10.0 mi SSE 4.6 mph - N/A   Clear
9:15 PM 60.8 °F 33.3 °F 36% 29.91 in 10.0 mi SSE 5.8 mph - N/A   Clear
9:35 PM 60.1 °F 34.0 °F 38% 29.91 in 10.0 mi SSE 6.9 mph - N/A   Clear
9:55 PM 59.9 °F 34.3 °F 38% 29.91 in 10.0 mi SSE 6.9 mph - N/A   Clear
10:15 PM 60.3 °F 35.1 °F 39% 29.92 in 10.0 mi SSE 8.1 mph - N/A   Clear
10:35 PM 59.9 °F 36.3 °F 41% 29.93 in 10.0 mi South 5.8 mph - N/A   Clear
10:55 PM 60.3 °F 38.3 °F 44% 29.93 in 10.0 mi South 6.9 mph - N/A   Clear
11:35 PM 63.0 °F 40.3 °F 43% 29.93 in 10.0 mi South 8.1 mph - N/A   Clear
11:55 PM 63.7 °F 40.6 °F 43% 29.94 in 10.0 mi South 6.9 mph - N/A   Clear